Date String (YYYY-MM-DD hh:mm:ss) UTC,Instrument flags,Ambient pressure (hPa),Sample flow (lpm),Bypass flow (lpm),Sample temperature (°C),Ambient temperature (°C),ASC tube jacket temperature (°C),LED temperature (°C),Box temperature (°C),Sample RH (%),Span deviation,Mass concentration (μg/m³),Mass concentration (μg/m³),Mass concentration (μg/m³)
DateTimeUTC,F1_M11,P_M11,Q1_M11,Q2_M11,T1_M11,T2_M11,T3_M11,T4_M11,T5_M11,U1_M11,ZSPAN_M11,X0_M11,X2_M11,X1_M11
2021-10-26 02:00:00,,0817.4,5.00,0.00,29.9,29.2,00.0,38.9,31.8,14.1,0000.0,0035.41,0008.39,0005.58
2021-10-26 02:01:00,,0817.4,5.00,0.00,30.0,29.2,00.0,38.9,31.8,14.1,0000.0,0033.67,0008.19,0005.44
2021-10-26 02:02:00,,0817.4,5.01,0.00,30.0,29.3,00.0,39.0,31.9,14.0,0000.0,0032.04,0007.99,0005.28
2021-10-26 02:03:00,,0817.4,4.98,0.00,30.0,29.3,00.0,39.0,31.9,14.0,0000.0,0031.65,0007.80,0005.11
2021-10-26 02:04:00,,0817.5,5.01,0.00,30.0,29.3,00.0,39.0,31.9,13.9,0000.0,0030.12,0007.62,0004.94
2021-10-26 02:05:00,,0817.5,5.00,0.00,30.0,29.3,00.0,39.0,31.9,13.9,0000.0,0028.82,0007.40,0004.77
2021-10-26 02:06:00,,0817.5,5.01,0.00,30.0,29.2,00.0,39.0,31.8,13.9,0000.0,0028.33,0007.22,0004.63
2021-10-26 02:07:00,,0817.5,5.00,0.00,30.0,29.2,00.0,39.0,31.8,14.0,0000.0,0026.68,0007.06,0004.50
2021-10-26 02:08:00,,0817.4,5.01,0.00,30.0,29.2,00.0,39.0,31.8,14.0,0000.0,0027.64,0006.95,0004.43
2021-10-26 02:09:00,,0817.5,5.01,0.00,30.0,29.2,00.0,39.0,31.8,14.0,0000.0,0028.63,0006.88,0004.40
2021-10-26 02:10:00,,0817.5,4.99,0.00,30.0,29.2,00.0,39.0,31.8,14.1,0000.0,0030.35,0006.92,0004.39
2021-10-26 02:11:00,,0817.5,5.00,0.00,30.0,29.2,00.0,39.0,31.7,14.1,0000.0,0031.08,0007.04,0004.43
2021-10-26 02:12:00,,0817.5,5.00,0.00,30.0,29.2,00.0,39.1,31.7,14.2,0000.0,0031.79,0007.15,0004.51
2021-10-26 02:13:00,,0817.4,4.99,0.00,30.0,29.2,00.0,39.1,31.7,14.2,0000.0,0033.05,0007.29,0004.62
2021-10-26 02:14:00,,0817.3,5.01,0.00,30.0,29.2,00.0,39.1,31.8,14.2,0000.0,0033.03,0007.43,0004.76
2021-10-26 02:15:00,,0817.3,5.00,0.00,30.0,29.2,00.0,39.1,31.7,14.3,0000.0,0034.14,0007.68,0004.94
2021-10-26 02:16:00,,0817.4,5.00,0.00,30.0,29.2,00.0,39.1,31.8,14.3,0000.0,0036.37,0007.97,0005.13
2021-10-26 02:17:00,,0817.5,4.99,0.00,30.0,29.2,00.0,39.1,31.8,14.3,0000.0,0037.09,0008.24,0005.32
2021-10-26 02:18:00,,0817.4,5.01,0.00,30.0,29.2,00.0,39.1,31.7,14.3,0000.0,0037.71,0008.48,0005.49
2021-10-26 02:19:00,,0817.4,5.00,0.00,30.0,29.2,00.0,39.1,31.7,14.3,0004.6,0037.51,0008.65,0005.63
2021-10-26 02:20:00,,0817.3,4.99,0.00,30.0,29.2,00.0,39.1,31.7,14.3,0004.5,0038.89,0008.86,0005.75
2021-10-26 02:21:00,,0817.3,5.00,0.00,30.0,27.7,00.0,39.1,31.4,14.3,0004.8,0038.72,0008.99,0005.87
2021-10-26 02:22:00,,0817.3,5.00,0.00,29.8,26.1,00.0,39.0,31.2,14.4,0004.9,0037.45,0008.97,0005.95
2021-10-26 02:23:00,,0817.3,5.00,0.00,29.7,26.1,00.0,39.0,31.1,14.5,0004.8,0037.11,0009.12,0006.05
2021-10-26 02:24:00,,0817.4,4.99,0.00,29.6,26.5,00.0,38.9,31.1,14.6,0005.0,0037.02,0009.18,0006.14
2021-10-26 02:25:00,,0817.3,5.00,0.00,29.6,26.9,00.0,38.9,31.1,14.7,0004.7,0037.20,0009.21,0006.20
2021-10-26 02:26:00,,0817.4,4.99,0.00,29.5,27.3,00.0,38.8,31.1,14.7,0004.9,0036.16,0009.13,0006.22
2021-10-26 02:27:00,,0817.3,5.00,0.00,29.5,27.6,00.0,38.8,31.1,14.7,0004.7,0036.16,0009.16,0006.24
2021-10-26 02:28:00,,0817.4,5.00,0.00,29.5,27.8,00.0,38.8,31.2,14.7,0003.8,0037.66,0009.23,0006.27
2021-10-26 02:29:00,,0817.4,5.00,0.00,29.5,28.0,00.0,38.7,31.2,14.6,0002.5,0039.87,0009.30,0006.34
2021-10-26 02:30:00,,0817.3,4.99,0.00,29.6,28.2,00.0,38.7,31.3,14.6,0003.1,0041.49,0009.51,0006.40
2021-10-26 02:31:00,,0817.4,5.01,0.00,29.6,28.3,00.0,38.7,31.3,14.6,0003.6,0039.80,0009.61,0006.45
2021-10-26 02:32:00,,0817.4,5.01,0.00,29.6,28.4,00.0,38.7,31.3,14.6,0003.5,0038.93,0009.58,0006.49
2021-10-26 02:33:00,,0817.3,4.99,0.00,29.6,28.5,00.0,38.7,31.3,14.6,0003.0,0039.89,0009.71,0006.52
2021-10-26 02:34:00,,0817.4,4.99,0.00,29.6,28.6,00.0,38.7,31.4,14.6,0003.0,0041.08,0009.75,0006.54
2021-10-26 02:35:00,,0817.4,5.00,0.00,29.7,28.6,00.0,38.7,31.4,14.6,0002.5,0041.49,0009.84,0006.57
2021-10-26 02:36:00,,0817.4,4.99,0.00,29.7,28.7,00.0,38.7,31.4,14.5,0002.4,0041.57,0009.90,0006.60
2021-10-26 02:37:00,,0817.5,5.01,0.00,29.7,28.7,00.0,38.8,31.4,14.5,0002.6,0043.22,0009.97,0006.63
2021-10-26 02:38:00,,0817.5,5.00,0.00,29.7,28.7,00.0,38.7,31.4,14.5,0002.6,0043.26,0009.89,0006.65
2021-10-26 02:39:00,,0817.5,5.00,0.00,29.7,28.8,00.0,38.7,31.4,14.5,0002.6,0042.65,0009.84,0006.68
2021-10-26 02:40:00,,0817.5,5.00,0.00,29.7,28.8,00.0,38.7,31.4,14.5,0003.2,0042.28,0009.73,0006.67
2021-10-26 02:41:00,,0817.5,5.00,0.00,29.7,28.8,00.0,38.7,31.5,14.4,0003.0,0041.36,0009.67,0006.65
2021-10-26 02:42:00,,0817.5,5.00,0.00,29.7,28.9,00.0,38.7,31.5,14.4,0003.3,0041.67,0009.57,0006.65
2021-10-26 02:43:00,,0817.5,5.00,0.00,29.8,28.9,00.0,38.8,31.5,14.3,0003.0,0042.12,0009.60,0006.67
2021-10-26 02:44:00,,0817.5,5.00,0.00,29.8,29.0,00.0,38.8,31.6,14.3,0003.0,0041.25,0009.61,0006.66
2021-10-26 02:45:00,,0817.4,4.99,0.00,29.8,29.0,00.0,38.8,31.6,14.3,0003.1,0040.45,0009.56,0006.67
2021-10-26 02:46:00,,0817.4,5.00,0.00,29.8,29.0,00.0,38.8,31.6,14.3,0003.6,0039.96,0009.49,0006.68
2021-10-26 02:47:00,,0817.5,4.99,0.00,29.9,29.1,00.0,38.8,31.7,14.2,0003.3,0040.89,0009.53,0006.69
2021-10-26 02:48:00,,0817.4,5.02,0.00,29.9,29.1,00.0,38.9,31.7,14.2,0003.5,0041.70,0009.54,0006.71
2021-10-26 02:49:00,,0817.5,4.99,0.00,29.9,29.1,00.0,38.9,31.7,14.2,0003.7,0041.14,0009.57,0006.72
2021-10-26 02:50:00,,0817.5,4.99,0.00,29.9,29.1,00.0,38.9,31.7,14.2,0004.1,0039.71,0009.61,0006.71
2021-10-26 02:51:00,,0817.5,5.01,0.00,29.9,29.1,00.0,38.9,31.7,14.2,0004.5,0039.95,0009.70,0006.72
2021-10-26 02:52:00,,0817.5,4.99,0.00,29.9,29.1,00.0,38.9,31.7,14.2,0003.7,0039.17,0009.71,0006.74
2021-10-26 02:53:00,,0817.5,5.00,0.00,29.9,29.2,00.0,38.9,31.7,14.1,0003.5,0038.84,0009.74,0006.77
2021-10-26 02:54:00,,0817.4,5.00,0.00,29.9,29.2,00.0,38.9,31.7,14.1,0003.4,0037.71,0009.76,0006.79
2021-10-26 02:55:00,,0817.4,4.99,0.00,30.0,29.2,00.0,38.9,31.7,14.1,0004.5,0039.96,0009.82,0006.85
2021-10-26 02:56:00,,0817.4,5.01,0.00,30.0,29.2,00.0,39.0,31.8,14.0,0003.1,0040.76,0009.89,0006.89
2021-10-26 02:57:00,,0817.4,5.00,0.00,30.0,29.2,00.0,39.0,31.8,14.0,0002.7,0043.40,0009.99,0006.93
2021-10-26 02:58:00,,0817.4,5.01,0.00,30.0,29.2,00.0,39.0,31.8,14.0,0002.4,0042.18,0010.03,0006.98
2021-10-26 02:59:00,,0817.3,5.00,0.00,30.0,29.1,00.0,39.0,31.7,14.0,0001.8,0040.38,0010.11,0007.03
